YD2APR-13 Weather Reports


time (UTC)temp
F
wind
direction
speed
knots
gust
knots
rain 1hr
in
rain 24hr
in
rain mn
in
humidity
%
barometer
mb
20260505223537 74 0.0 0.0 0.00 0.00 0.00 88 1015.0
20260505222537 74 0.0 0.0 0.00 0.00 0.00 89 1015.0
20260505221537 74 0.0 0.0 0.00 0.00 0.00 89 1014.9
20260505220537 74 0.0 0.0 0.00 0.00 0.00 91 1014.9
20260505215537 74 0.0 0.0 0.00 0.00 0.00 91 1014.8
20260505214537 74 0.0 0.0 0.00 0.00 0.00 91 1014.8
20260505213537 74 0.0 0.0 0.00 0.00 0.00 91 1014.8
20260505212538 74 0.0 0.0 0.00 0.00 0.00 91 1014.8
20260505211537 74 0.0 0.0 0.00 0.00 0.00 91 1014.8
20260505210537 74 0.0 0.0 0.00 0.00 0.00 91 1014.9
20260505205537 74 0.0 0.0 0.00 0.00 0.00 91 1015.0
20260505204537 74 0.0 0.0 0.00 0.00 0.00 91 1014.9
20260505203537 74 0.0 0.0 0.00 0.00 0.00 91 1014.8
20260505202537 74 0.0 0.0 0.00 0.00 0.00 90 1014.8
20260505201537 74 0.0 0.0 0.00 0.00 0.00 90 1014.8
20260505200537 74 0.0 0.0 0.00 0.00 0.00 90 1014.8
20260505195537 75 0.0 0.0 0.00 0.00 0.00 90 1014.9
20260505194538 75 0.0 0.0 0.00 0.00 0.00 91 1014.9
20260505193537 75 0.0 0.0 0.00 0.00 0.00 91 1014.9
20260505192538 75 0.0 0.0 0.00 0.00 0.00 91 1015.0
20260505191537 75 0.0 0.0 0.00 0.00 0.00 90 1015.1
20260505190537 75 0.0 0.0 0.00 0.00 0.00 90 1015.2
20260505185537 76 0.0 0.0 0.00 0.00 0.00 90 1015.2
20260505184537 76 0.0 0.0 0.00 0.00 0.00 90 1015.3
20260505183537 77 0.0 0.0 0.00 0.00 0.00 89 1015.3
20260505182537 77 0.0 0.0 0.00 0.00 0.00 88 1015.4
20260505181537 77 0.0 0.0 0.00 0.00 0.00 88 1015.4
20260505180537 77 0.0 0.0 0.00 0.00 0.00 89 1015.5
20260505175537 77 0.0 0.0 0.00 0.00 0.00 89 1015.6
20260505174537 77 0.0 0.0 0.00 0.00 0.00 89 1015.7
20260505173536 77 0.0 0.0 0.00 0.00 0.00 89 1015.8
20260505172536 77 0.0 0.0 0.00 0.00 0.00 89 1016.0
20260505171536 77 0.0 0.0 0.00 0.00 0.00 88 1016.1
20260505170536 77 0.0 0.0 0.00 0.00 0.00 88 1016.2
20260505165536 77 0.0 0.0 0.00 0.00 0.00 88 1016.3
20260505164538 77 0.0 0.0 0.00 0.00 0.00 88 1016.3
20260505163536 77 0.0 0.0 0.00 0.00 0.00 87 1016.4
20260505162536 77 0.0 0.0 0.00 0.00 0.00 87 1016.5
20260505161537 77 0.0 0.0 0.00 0.00 0.00 88 1016.5
20260505160536 77 0.0 0.0 0.00 0.00 0.00 88 1016.5
20260505152536 77 0.0 0.0 0.00 0.00 0.00 87 1016.3
20260505151536 77 0.0 0.0 0.00 0.00 0.00 87 1016.4
20260505150538 77 0.0 0.0 0.00 0.00 0.00 87 1016.5
20260505140536 78 0.0 0.0 0.00 0.00 0.00 85 1016.5
20260505124536 79 0.0 0.0 0.00 0.00 0.00 83 1016.0
20260505123536 79 0.0 0.0 0.00 0.00 0.00 80 1016.1
20260505122536 80 0.0 0.0 0.00 0.00 0.00 77 1016.0
20260505121536 80 0.0 0.0 0.00 0.00 0.00 78 1015.7
20260505120536 80 0.0 0.0 0.00 0.00 0.00 78 1015.2
20260505115536 80 0.0 0.0 0.00 0.00 0.00 78 1015.1
20260505114536 80 0.0 0.0 0.00 0.00 0.00 77 1015.1
20260505113538 80 0.0 0.0 0.00 0.00 0.00 78 1014.9
20260505112536 80 0.0 0.0 0.00 0.00 0.00 77 1014.7
20260505111536 80 0.0 0.0 0.00 0.00 0.00 77 1014.7
20260505110536 80 0.0 0.0 0.00 0.00 0.00 75 1014.4
20260505101536 82 0.0 0.0 0.00 0.00 0.00 69 1014.0
20260505100536 83 0.0 0.0 0.00 0.00 0.00 68 1014.0
20260505095536 83 0.0 0.0 0.00 0.00 0.00 67 1013.9
20260505094536 83 0.0 0.0 0.00 0.00 0.00 66 1013.7
20260505093536 84 0.0 0.0 0.00 0.00 0.00 65 1013.6
20260505092536 85 0.0 0.0 0.00 0.00 0.00 63 1013.5
20260505091536 86 0.0 0.0 0.00 0.00 0.00 62 1013.3
20260505090536 88 0.0 0.0 0.00 0.00 0.00 60 1013.2
20260505085536 88 0.0 0.0 0.00 0.00 0.00 60 1013.2
20260505084536 90 0.0 0.0 0.00 0.00 0.00 58 1013.4
20260505084514 90 0.0 0.0 0.00 0.00 0.00 58 1013.4
20260505084220 90 0.0 0.0 0.00 0.00 0.00 56 1013.1
20260505083221 89 0.0 0.0 0.00 0.00 0.00 56 1013.1
20260505082220 90 0.0 0.0 0.00 0.00 0.00 57 1013.1
20260505081220 90 0.0 0.0 0.00 0.00 0.00 56 1013.1
20260505080221 89 0.0 0.0 0.00 0.00 0.00 59 1013.0
20260505075220 88 0.0 0.0 0.00 0.00 0.00 61 1013.0
20260505074220 90 0.0 0.0 0.00 0.00 0.00 58 1013.1
20260505073220 90 0.0 0.0 0.00 0.00 0.00 56 1013.2
20260505072221 93 0.0 0.0 0.00 0.00 0.00 53 1013.3
20260505071220 93 0.0 0.0 0.00 0.00 0.00 53 1013.5
20260505070220 92 0.0 0.0 0.00 0.00 0.00 54 1013.6
20260505065220 92 0.0 0.0 0.00 0.00 0.00 55 1013.7
20260505064220 91 0.0 0.0 0.00 0.00 0.00 56 1013.7
20260505063220 91 0.0 0.0 0.00 0.00 0.00 57 1013.9
20260505062220 94 0.0 0.0 0.00 0.00 0.00 53 1014.2
20260505061220 93 0.0 0.0 0.00 0.00 0.00 53 1014.3
20260505060220 95 0.0 0.0 0.00 0.00 0.00 51 1014.4
20260505055220 95 0.0 0.0 0.00 0.00 0.00 50 1014.5
20260505054220 94 0.0 0.0 0.00 0.00 0.00 52 1014.7
20260505054152 94 0.0 0.0 0.00 0.00 0.00 52 1014.7
20260505054117 94 0.0 0.0 0.00 0.00 0.00 52 1014.7
20260505053659 94 0.0 0.0 0.00 0.00 0.00 52 1014.7
20260505052700 92 0.0 0.0 0.00 0.00 0.00 55 1014.7
20260505051659 92 0.0 0.0 0.00 0.00 0.00 56 1014.8
20260505050659 90 0.0 0.0 0.00 0.00 0.00 57 1014.9
20260505041659 91 0.0 0.0 0.00 0.00 0.00 58 1015.9
20260505040700 92 0.0 0.0 0.00 0.00 0.00 57 1016.1
20260505035659 89 0.0 0.0 0.00 0.00 0.00 61 1016.2
20260505034705 90 0.0 0.0 0.00 0.00 0.00 59 101.6
20260505034659 90 0.0 0.0 0.00 0.00 0.00 59 1016.3
20260505033701 90 0.0 0.0 0.00 0.00 0.00 60 1016.4
20260505032659 90 0.0 0.0 0.00 0.00 0.00 60 1016.4
20260505031700 87 0.0 0.0 0.00 0.00 0.00 64 1016.5
20260505030659 87 0.0 0.0 0.00 0.00 0.00 65 1016.6
20260505025659 88 0.0 0.0 0.00 0.00 0.00 64 1016.7
20260505024659 87 0.0 0.0 0.00 0.00 0.00 65 1016.6
20260505023659 87 0.0 0.0 0.00 0.00 0.00 66 1016.5
20260505022700 85 0.0 0.0 0.00 0.00 0.00 68 1016.6
20260505021659 84 0.0 0.0 0.00 0.00 0.00 71 1016.7
20260505020701 85 0.0 0.0 0.00 0.00 0.00 69 1016.7
20260505015659 83 0.0 0.0 0.00 0.00 0.00 72 1016.8
20260505014700 81 0.0 0.0 0.00 0.00 0.00 75 1016.8
20260505013659 81 0.0 0.0 0.00 0.00 0.00 75 1016.6
20260505012659 80 0.0 0.0 0.00 0.00 0.00 78 1016.5
20260505011659 80 0.0 0.0 0.00 0.00 0.00 77 1016.4
20260505010659 81 0.0 0.0 0.00 0.00 0.00 76 1016.3
20260505005659 82 0.0 0.0 0.00 0.00 0.00 75 1016.3
20260505004659 81 0.0 0.0 0.00 0.00 0.00 77 1016.2
20260505003659 79 0.0 0.0 0.00 0.00 0.00 80 1016.0
20260505002700 78 0.0 0.0 0.00 0.00 0.00 81 1015.8
20260505001659 78 0.0 0.0 0.00 0.00 0.00 83 1015.7
20260505000700 76 0.0 0.0 0.00 0.00 0.00 85 1015.5
20260504235659 75 0.0 0.0 0.00 0.00 0.00 86 1015.5
20260504234659 74 0.0 0.0 0.00 0.00 0.00 87 1015.4
20260504233659 73 0.0 0.0 0.00 0.00 0.00 89 1015.3
20260504232659 73 0.0 0.0 0.00 0.00 0.00 89 1015.2
20260504231659 73 0.0 0.0 0.00 0.00 0.00 90 1015.1
20260504230659 73 0.0 0.0 0.00 0.00 0.00 90 1015.0
20260504225700 73 0.0 0.0 0.00 0.00 0.00 90 1014.9
20260504224658 72 0.0 0.0 0.00 0.00 0.00 90 1014.8
20260504223659 73 0.0 0.0 0.00 0.00 0.00 90 1014.7